Weather History for Liberia, Costa Rica

Change the Weather History Date:

Wednesday, October 16, 2013

  Actual Average Record
Temperature  
Mean Temperature 78 °F -  
Max Temperature 86 °F 85 °F 91 °F (2001)
Min Temperature 71 °F 72 °F 71 °F (2002)
Cooling Degree Days 14    
Growing Degree Days 28 (Base 50)    
Moisture  
Dew Point 72 °F    
Average Humidity 86    
Maximum Humidity 100    
Minimum Humidity 66    
Precipitation  
Precipitation 2.44 in - - ()
Sea Level Pressure  
Sea Level Pressure 29.87 in    
Wind  
Wind Speed 5 mph ()    
Max Wind Speed 12 mph    
Max Gust Speed -    
Visibility 5.9 miles    
Events Fog , Rain , Thunderstorm    
Averages and records for this station are not official NWS values.
T = Trace of Precipitation, MM = Missing Value Source: Averaged Metar Reports

Daily Weather History Graph

Daily Weather History Graph

Search for Another Location

Airport:

Trip Planner

Search our weather history database for the weather conditions in past years. The results will help you decide how hot, cold, wet, or windy it might be!

Date:

Astronomy

Oct. 16, 2013 Rise Set
Actual Time 5:31 AM CST 5:24 PM CST
Civil Twilight 5:09 AM CST 5:45 PM CST
Nautical Twilight 4:45 AM CST 6:09 PM CST
Astronomical Twilight 4:20 AM CST 6:34 PM CST
Moon 3:45 PM CST (10/16) 3:21 AM CST (10/16)
Length of Visible Light 12h 35m
Length of Day
11h 52m
Waxing Gibbous, 94% of the Moon is Illuminated
Oct 16
Waxing Gibbous
Oct 18
Full
Oct 26
Last Quarter
Nov 3
New
Nov 9
First Quarter

Hourly Weather History & Observations

Time (CST) Temp. Heat Index Dew Point Humidity Pressure Visibility Wind Dir Wind Speed Gust Speed Precip Events Conditions
6:00 AM 75 °F - 73 °F 91% 29.90 in 12 mi ESE 5.8 mph - -   Overcast
6:00 AM 75.2 °F - 73.4 °F 94% 29.88 in 6.2 mi ESE 5.8 mph - N/A Fog Mostly Cloudy
7:00 AM 77.0 °F - 73.4 °F 89% 29.90 in 6.2 mi North 3.5 mph - N/A   Mostly Cloudy
8:00 AM 80.6 °F 85.4 °F 73.4 °F 79% 29.92 in 6.2 mi NW 2.3 mph - N/A   Scattered Clouds
9:00 AM 82 °F - 74 °F 70% 29.94 in 12 mi SW 3.5 mph - -   Overcast
9:00 AM 82.4 °F 88.2 °F 73.4 °F 74% 29.93 in 6.2 mi SW 3.5 mph - N/A   Mostly Cloudy
10:00 AM 84.2 °F 90.9 °F 73.4 °F 70% 29.91 in 6.2 mi South 3.5 mph - N/A   Scattered Clouds
11:00 AM 86.0 °F 93.4 °F 73.4 °F 66% 29.89 in 6.2 mi West 4.6 mph - N/A   Scattered Clouds
12:00 PM 82 °F - 73 °F 67% 29.87 in 12 mi South 5.8 mph - -   Overcast
12:00 PM 82.4 °F 88.2 °F 73.4 °F 74% 29.86 in 6.2 mi South 5.8 mph - N/A   Mostly Cloudy
1:00 PM 86.0 °F 95.1 °F 75.2 °F 70% 29.83 in 6.2 mi SSW 5.8 mph - N/A   Mostly Cloudy
1:35 PM 80.6 °F 85.4 °F 73.4 °F 79% 29.82 in 4.3 mi SW 6.9 mph - N/A Rain , Thunderstorm Light Thunderstorms and Rain
2:00 PM 75.2 °F - 73.4 °F 94% 29.82 in 0.9 mi WSW 11.5 mph - N/A Rain , Thunderstorm Light Thunderstorms and Rain
2:12 PM 71.6 °F - 69.8 °F 94% 29.84 in 0.6 mi West 11.5 mph - N/A Rain , Thunderstorm Light Thunderstorms and Rain
2:39 PM 71.6 °F - 69.8 °F 94% 29.84 in 1.2 mi WNW 6.9 mph - N/A Rain Rain
3:00 PM 71 °F - 70 °F 95% 29.84 in 2 mi NNW 4.6 mph - - Rain Rain
3:00 PM 71.6 °F - 69.8 °F 94% 29.83 in 1.9 mi NNW 4.6 mph - N/A Rain Rain
3:13 PM 71.6 °F - 69.8 °F 94% 29.83 in 4.3 mi NE 3.5 mph - N/A Rain Rain
4:00 PM 71.6 °F - 71.6 °F 100% 29.86 in 5.0 mi East 4.6 mph - N/A Rain Light Rain
5:00 PM 71.6 °F - 71.6 °F 100% 29.85 in 5.6 mi NE 5.8 mph - N/A Rain Rain
6:00 PM 73 °F - 72 °F 94% 29.91 in 12 mi ENE 4.6 mph - - Rain Light Rain
6:00 PM 73.4 °F - 71.6 °F 94% 29.88 in 6.2 mi ENE 4.6 mph - N/A Rain Light Rain
7:00 PM 73.4 °F - 71.6 °F 94% 29.88 in 6.2 mi NE 3.5 mph - N/A Rain Light Rain
8:00 PM 71.6 °F - 71.6 °F 100% 29.90 in 6.2 mi South 3.5 mph - N/A   Mostly Cloudy